QPF
0.00 0.00 0.00 0.01 0.02 0.03 0.06 0.07 0.08 0.09 0.09 0.08 0.07 0.08 0.08 0.07 0.09 0.09 0.06 0.05 0.05 0.04 0.04 0.04 0.04 0.03 0.03 0.04 0.04 0.06 0.06 0.05 0.05 0.07 0.09 0.09 0.07 0.05 0.05 0.07 0.08 0.08 0.07
0.01 0.00 0.01 0.01 0.02 0.02 0.04 0.06 0.07 0.08 0.08 0.07 0.05 0.04 0.05 0.06 0.09 0.10 0.09 0.07 0.05 0.04 0.03 0.04 0.05 0.04 0.03 0.04 0.05 0.06 0.08 0.07 0.06 0.07 0.08 0.08 0.07 0.07 0.07 0.08 0.10 0.09 0.09
0.01 0.01 0.01 0.01 0.01 0.01 0.02 0.02 0.04 0.05 0.04 0.04 0.05 0.04 0.04 0.05 0.06 0.07 0.08 0.07 0.05 0.04 0.03 0.03 0.04 0.04 0.04 0.05 0.07 0.06 0.08 0.08 0.07 0.07 0.07 0.08 0.08 0.08 0.09 0.07 0.08 0.09 0.10
0.01 0.01 0.01 0.01 0.01 0.02 0.02 0.01 0.02 0.03 0.03 0.02 0.03 0.05 0.06 0.05 0.05 0.05 0.06 0.05 0.04 0.03 0.03 0.03 0.04 0.04 0.03 0.04 0.04 0.05 0.06 0.07 0.07 0.06 0.05 0.05 0.06 0.07 0.06 0.07 0.08 0.08 0.07
0.01 0.01 0.01 0.01 0.01 0.02 0.02 0.02 0.03 0.03 0.02 0.02 0.02 0.04 0.05 0.04 0.03 0.03 0.04 0.04 0.04 0.03 0.03 0.03 0.03 0.03 0.03 0.03 0.04 0.04 0.04 0.05 0.06 0.05 0.04 0.03 0.05 0.06 0.06 0.07 0.08 0.07 0.06
0.01 0.01 0.01 0.01 0.02 0.03 0.03 0.02 0.02 0.02 0.02 0.02 0.03 0.05 0.05 0.04 0.04 0.03 0.03 0.04 0.04 0.03 0.03 0.03 0.05 0.04 0.04 0.04 0.05 0.05 0.05 0.04 0.04 0.04 0.04 0.04 0.04 0.03 0.04 0.05 0.07 0.07 0.06
0.01 0.01 0.01 0.01 0.01 0.01 0.01 0.01 0.01 0.01 0.01 0.01 0.02 0.03 0.04 0.04 0.03 0.03 0.04 0.04 0.04 0.04 0.04 0.05 0.05 0.05 0.05 0.05 0.05 0.06 0.06 0.05 0.04 0.04 0.04 0.03 0.03 0.04 0.04 0.04 0.04 0.05 0.06
0.01 0.01 0.01 0.01 0.01 0.01 0.01 0.02 0.01 0.01 0.01 0.01 0.01 0.01 0.02 0.03 0.03 0.03 0.02 0.02 0.03 0.03 0.04 0.04 0.04 0.04 0.04 0.04 0.04 0.05 0.05 0.04 0.03 0.02 0.03 0.03 0.03 0.03 0.03 0.03 0.05 0.05 0.06
0.01 0.01 0.01 0.02 0.02 0.02 0.01 0.01 0.01 0.01 0.01 0.01 0.01 0.01 0.01 0.01 0.02 0.02 0.02 0.01 0.02 0.02 0.02 0.02 0.02 0.03 0.02 0.03 0.04 0.04 0.04 0.04 0.03 0.02 0.03 0.03 0.03 0.02 0.02 0.02 0.04 0.05 0.06
0.01 0.01 0.01 0.02 0.02 0.02 0.01 0.01 0.01 0.01 0.01 0.01 0.01 0.01 0.01 0.01 0.01 0.01 0.01 0.01 0.02 0.02 0.02 0.02 0.02 0.02 0.02 0.03 0.02 0.02 0.03 0.03 0.03 0.03 0.03 0.03 0.02 0.02 0.02 0.02 0.02 0.03 0.04
0.02 0.01 0.01 0.02 0.03 0.02 0.02 0.01 0.01 0.01 0.01 0.01 0.01 0.01 0.01 0.01 0.01 0.01 0.01 0.02 0.03 0.03 0.03 0.03 0.03 0.02 0.02 0.03 0.02 0.01 0.01 0.01 0.02 0.03 0.03 0.03 0.03 0.03 0.03 0.02 0.02 0.02 0.03
0.02 0.01 0.01 0.01 0.02 0.01 0.01 0.01 0.01 0.01 0.01 0.01 0.01 0.02 0.02 0.01 0.01 0.01 0.01 0.02 0.03 0.03 0.04 0.05 0.05 0.04 0.03 0.03 0.02 0.01 0.01 0.02 0.02 0.03 0.03 0.03 0.03 0.03 0.02 0.02 0.02 0.03 0.03
0.02 0.01 0.01 0.01 0.01 0.01 0.01 0.01 0.02 0.02 0.02 0.02 0.02 0.02 0.01 0.01 0.01 0.01 0.01 0.01 0.02 0.03 0.05 0.07 0.06 0.05 0.04 0.03 0.03 0.02 0.03 0.03 0.03 0.03 0.04 0.04 0.04 0.04 0.03 0.02 0.02 0.03 0.02
0.01 0.01 0.01 0.01 0.01 0.01 0.01 0.01 0.02 0.02 0.03 0.02 0.02 0.01 0.01 0.01 0.01 0.01 0.01 0.01 0.02 0.03 0.04 0.05 0.08 0.07 0.06 0.05 0.03 0.03 0.04 0.04 0.04 0.03 0.03 0.03 0.03 0.04 0.04 0.04 0.04 0.04 0.04
0.01 0.01 0.01 0.01 0.01 0.01 0.01 0.02 0.02 0.02 0.02 0.02 0.02 0.02 0.02 0.01 0.01 0.01 0.01 0.01 0.02 0.03 0.03 0.04 0.06 0.09 0.07 0.05 0.03 0.03 0.03 0.05 0.04 0.04 0.03 0.03 0.04 0.05 0.06 0.06 0.05 0.04 0.04
0.01 0.01 0.01 0.01 0.01 0.01 0.01 0.01 0.01 0.02 0.03 0.03 0.02 0.02 0.02 0.02 0.01 0.01 0.02 0.02 0.03 0.03 0.03 0.03 0.04 0.07 0.11 0.09 0.06 0.05 0.04 0.04 0.04 0.03 0.02 0.02 0.03 0.04 0.03 0.03 0.03 0.03 0.03
0.02 0.02 0.02 0.01 0.01 0.01 0.01 0.01 0.01 0.01 0.02 0.02 0.03 0.02 0.02 0.02 0.01 0.01 0.02 0.03 0.04 0.03 0.03 0.02 0.02 0.03 0.07 0.11 0.10 0.08 0.06 0.04 0.04 0.03 0.02 0.01 0.01 0.01 0.01 0.02 0.02 0.02 0.02
0.02 0.02 0.01 0.01 0.01 0.01 0.00 0.00 0.01 0.01 0.01 0.02 0.03 0.02 0.02 0.02 0.02 0.02 0.02 0.02 0.03 0.03 0.02 0.03 0.03 0.03 0.03 0.05 0.07 0.09 0.09 0.07 0.03 0.02 0.02 0.02 0.01 0.01 0.01 0.02 0.02 0.02 0.02
0.02 0.02 0.02 0.01 0.01 0.01 0.01 0.01 0.01 0.01 0.02 0.02 0.03 0.03 0.03 0.03 0.02 0.01 0.02 0.03 0.03 0.04 0.04 0.04 0.04 0.03 0.02 0.02 0.03 0.04 0.05 0.05 0.04 0.02 0.02 0.02 0.01 0.01 0.01 0.02 0.02 0.03 0.02
0.03 0.03 0.03 0.03 0.02 0.02 0.02 0.03 0.03 0.03 0.03 0.03 0.03 0.03 0.03 0.03 0.03 0.02 0.02 0.03 0.03 0.04 0.05 0.04 0.03 0.03 0.02 0.01 0.01 0.01 0.02 0.02 0.03 0.03 0.02 0.01 0.01 0.01 0.01 0.01 0.02 0.02 0.03
0.02 0.03 0.03 0.03 0.02 0.02 0.02 0.03 0.06 0.07 0.06 0.04 0.03 0.03 0.03 0.03 0.03 0.02 0.02 0.01 0.02 0.02 0.03 0.04 0.04 0.03 0.03 0.02 0.01 0.01 0.01 0.02 0.03 0.03 0.02 0.01 0.01 0.01 0.01 0.01 0.02 0.02 0.02
0.02 0.02 0.02 0.02 0.02 0.02 0.02 0.02 0.05 0.06 0.05 0.04 0.03 0.02 0.03 0.05 0.04 0.03 0.02 0.01 0.01 0.01 0.02 0.02 0.03 0.03 0.02 0.01 0.01 0.01 0.01 0.01 0.02 0.02 0.01 0.01 0.01 0.01 0.01 0.01 0.01 0.01 0.01
0.02 0.01 0.01 0.01 0.01 0.02 0.02 0.03 0.05 0.06 0.05 0.05 0.04 0.04 0.03 0.03 0.06 0.04 0.02 0.02 0.02 0.02 0.02 0.02 0.03 0.03 0.02 0.01 0.01 0.00 0.00 0.00 0.01 0.01 0.02 0.01 0.01 0.01 0.01 0.01 0.01 0.01 0.01
0.01 0.01 0.01 0.01 0.01 0.02 0.03 0.03 0.04 0.05 0.04 0.05 0.05 0.03 0.04 0.04 0.05 0.04 0.03 0.03 0.02 0.02 0.02 0.02 0.05 0.03 0.02 0.01 0.01 0.01 0.01 0.01 0.01 0.01 0.02 0.02 0.02 0.01 0.01 0.01 0.01 0.01 0.01
0.01 0.01 0.01 0.01 0.01 0.01 0.02 0.02 0.03 0.04 0.04 0.04 0.04 0.04 0.04 0.05 0.04 0.05 0.05 0.03 0.02 0.02 0.02 0.02 0.02 0.02 0.02 0.01 0.01 0.01 0.01 0.01 0.01 0.02 0.02 0.02 0.02 0.02 0.02 0.01 0.01 0.01 0.01
0.01 0.02 0.02 0.01 0.01 0.02 0.01 0.01 0.02 0.02 0.03 0.03 0.03 0.04 0.04 0.05 0.05 0.05 0.06 0.07 0.05 0.03 0.02 0.01 0.02 0.02 0.02 0.01 0.01 0.01 0.01 0.02 0.02 0.02 0.02 0.02 0.02 0.02 0.02 0.02 0.01 0.01 0.02
MSLP
1007.96 1007.76 1007.46 1007.09 1006.68 1006.29 1005.95 1005.70 1005.58 1005.58 1005.69 1005.88 1006.11 1006.36 1006.60 1006.81 1006.99 1007.17 1007.35 1007.55 1007.79 1008.08 1008.42 1008.78 1009.17 1009.56 1009.94 1010.30 1010.63 1010.92 1011.20 1011.46 1011.71 1011.96 1012.21 1012.47 1012.74 1013.03 1013.33 1013.66 1014.00 1014.37 1014.76
1008.09 1007.98 1007.76 1007.43 1007.05 1006.66 1006.32 1006.06 1005.92 1005.90 1005.99 1006.14 1006.32 1006.50 1006.66 1006.78 1006.87 1006.95 1007.05 1007.20 1007.42 1007.71 1008.08 1008.50 1008.95 1009.41 1009.85 1010.26 1010.63 1010.96 1011.25 1011.52 1011.78 1012.03 1012.29 1012.56 1012.83 1013.11 1013.39 1013.68 1013.98 1014.28 1014.59
1008.04 1008.04 1007.91 1007.66 1007.33 1006.98 1006.66 1006.42 1006.29 1006.27 1006.33 1006.46 1006.59 1006.71 1006.77 1006.79 1006.78 1006.76 1006.77 1006.86 1007.04 1007.32 1007.70 1008.17 1008.68 1009.20 1009.71 1010.17 1010.58 1010.93 1011.23 1011.51 1011.76 1012.01 1012.26 1012.52 1012.79 1013.06 1013.33 1013.58 1013.83 1014.07 1014.31
1007.86 1007.98 1007.95 1007.79 1007.53 1007.23 1006.96 1006.75 1006.64 1006.63 1006.69 1006.79 1006.88 1006.93 1006.91 1006.83 1006.71 1006.59 1006.51 1006.52 1006.65 1006.92 1007.32 1007.82 1008.38 1008.96 1009.52 1010.03 1010.47 1010.85 1011.16 1011.42 1011.66 1011.90 1012.14 1012.38 1012.64 1012.89 1013.14 1013.37 1013.57 1013.76 1013.93
1007.63 1007.85 1007.92 1007.85 1007.67 1007.44 1007.22 1007.05 1006.96 1006.96 1007.01 1007.09 1007.14 1007.12 1007.03 1006.86 1006.64 1006.41 1006.25 1006.19 1006.27 1006.51 1006.91 1007.43 1008.04 1008.67 1009.28 1009.83 1010.31 1010.70 1011.01 1011.27 1011.50 1011.71 1011.93 1012.15 1012.39 1012.62 1012.85 1013.06 1013.23 1013.38 1013.51
1007.39 1007.70 1007.87 1007.88 1007.78 1007.62 1007.44 1007.31 1007.24 1007.23 1007.27 1007.32 1007.32 1007.25 1007.08 1006.83 1006.52 1006.21 1005.97 1005.84 1005.87 1006.08 1006.46 1007.00 1007.62 1008.29 1008.94 1009.53 1010.04 1010.46 1010.78 1011.03 1011.25 1011.45 1011.64 1011.85 1012.07 1012.29 1012.50 1012.69 1012.85 1012.98 1013.09
1007.17 1007.55 1007.80 1007.89 1007.86 1007.75 1007.62 1007.51 1007.45 1007.43 1007.45 1007.45 1007.40 1007.27 1007.04 1006.72 1006.34 1005.96 1005.64 1005.45 1005.42 1005.59 1005.95 1006.48 1007.11 1007.80 1008.48 1009.10 1009.64 1010.08 1010.43 1010.70 1010.92 1011.11 1011.30 1011.50 1011.70 1011.92 1012.12 1012.31 1012.48 1012.61 1012.71
1006.96 1007.39 1007.69 1007.85 1007.88 1007.83 1007.74 1007.64 1007.58 1007.54 1007.52 1007.48 1007.38 1007.19 1006.90 1006.52 1006.08 1005.64 1005.26 1005.01 1004.93 1005.05 1005.37 1005.86 1006.48 1007.17 1007.86 1008.51 1009.09 1009.57 1009.95 1010.25 1010.50 1010.71 1010.91 1011.11 1011.32 1011.54 1011.75 1011.95 1012.13 1012.27 1012.38
1006.70 1007.16 1007.51 1007.72 1007.82 1007.81 1007.76 1007.68 1007.61 1007.55 1007.49 1007.40 1007.24 1007.00 1006.66 1006.23 1005.74 1005.26 1004.83 1004.52 1004.39 1004.45 1004.71 1005.16 1005.74 1006.41 1007.11 1007.78 1008.39 1008.92 1009.35 1009.71 1010.00 1010.26 1010.49 1010.72 1010.95 1011.18 1011.41 1011.62 1011.81 1011.98 1012.11
1006.35 1006.82 1007.20 1007.46 1007.61 1007.67 1007.65 1007.60 1007.53 1007.46 1007.36 1007.22 1007.02 1006.73 1006.34 1005.87 1005.35 1004.83 1004.36 1004.01 1003.81 1003.81 1004.01 1004.39 1004.92 1005.56 1006.25 1006.93 1007.58 1008.17 1008.67 1009.10 1009.47 1009.78 1010.07 1010.34 1010.60 1010.85 1011.10 1011.33 1011.53 1011.71 1011.86
1005.87 1006.33 1006.73 1007.04 1007.25 1007.36 1007.40 1007.39 1007.34 1007.26 1007.13 1006.96 1006.72 1006.39 1005.98 1005.48 1004.94 1004.39 1003.89 1003.50 1003.25 1003.17 1003.30 1003.61 1004.08 1004.67 1005.34 1006.03 1006.72 1007.36 1007.94 1008.46 1008.91 1009.30 1009.65 1009.97 1010.27 1010.55 1010.80 1011.04 1011.26 1011.45 1011.61
1005.29 1005.73 1006.14 1006.48 1006.74 1006.92 1007.03 1007.06 1007.04 1006.97 1006.85 1006.66 1006.39 1006.04 1005.60 1005.09 1004.54 1003.97 1003.45 1003.02 1002.71 1002.58 1002.62 1002.86 1003.26 1003.80 1004.44 1005.13 1005.84 1006.54 1007.20 1007.80 1008.34 1008.82 1009.24 1009.61 1009.94 1010.24 1010.50 1010.74 1010.95 1011.14 1011.31
1004.67 1005.06 1005.47 1005.83 1006.14 1006.39 1006.56 1006.65 1006.68 1006.63 1006.52 1006.33 1006.05 1005.69 1005.24 1004.73 1004.17 1003.60 1003.06 1002.59 1002.25 1002.05 1002.02 1002.18 1002.51 1002.99 1003.59 1004.27 1005.00 1005.75 1006.47 1007.15 1007.77 1008.33 1008.81 1009.23 1009.58 1009.89 1010.15 1010.38 1010.59 1010.78 1010.94
1004.11 1004.44 1004.81 1005.18 1005.53 1005.82 1006.05 1006.20 1006.28 1006.27 1006.18 1006.00 1005.73 1005.37 1004.92 1004.41 1003.85 1003.28 1002.73 1002.24 1001.86 1001.61 1001.51 1001.60 1001.85 1002.27 1002.82 1003.48 1004.21 1004.99 1005.76 1006.50 1007.18 1007.79 1008.33 1008.78 1009.16 1009.47 1009.73 1009.95 1010.15 1010.34 1010.51
1003.71 1003.96 1004.28 1004.62 1004.97 1005.29 1005.56 1005.77 1005.89 1005.92 1005.86 1005.70 1005.44 1005.09 1004.65 1004.15 1003.59 1003.03 1002.47 1001.97 1001.55 1001.25 1001.10 1001.11 1001.29 1001.64 1002.14 1002.77 1003.48 1004.26 1005.05 1005.82 1006.54 1007.19 1007.76 1008.24 1008.63 1008.95 1009.21 1009.43 1009.63 1009.82 1010.01
1003.53 1003.68 1003.91 1004.21 1004.53 1004.85 1005.14 1005.38 1005.53 1005.60 1005.57 1005.43 1005.19 1004.85 1004.43 1003.94 1003.40 1002.84 1002.28 1001.77 1001.33 1000.99 1000.79 1000.74 1000.85 1001.13 1001.56 1002.13 1002.81 1003.56 1004.35 1005.12 1005.86 1006.52 1007.11 1007.60 1008.00 1008.33 1008.60 1008.83 1009.04 1009.26 1009.47
1003.58 1003.61 1003.74 1003.95 1004.22 1004.51 1004.79 1005.03 1005.21 1005.30 1005.29 1005.18 1004.96 1004.65 1004.25 1003.78 1003.26 1002.71 1002.17 1001.65 1001.20 1000.84 1000.59 1000.48 1000.53 1000.74 1001.11 1001.61 1002.23 1002.93 1003.68 1004.43 1005.15 1005.81 1006.39 1006.88 1007.29 1007.63 1007.91 1008.17 1008.41 1008.65 1008.90
1003.78 1003.68 1003.70 1003.80 1003.99 1004.23 1004.48 1004.71 1004.90 1005.01 1005.02 1004.94 1004.75 1004.47 1004.10 1003.66 1003.17 1002.64 1002.12 1001.62 1001.16 1000.78 1000.51 1000.36 1000.36 1000.51 1000.80 1001.23 1001.78 1002.41 1003.09 1003.79 1004.47 1005.09 1005.65 1006.14 1006.55 1006.90 1007.20 1007.48 1007.75 1008.03 1008.33
1004.01 1003.79 1003.68 1003.69 1003.79 1003.96 1004.17 1004.38 1004.56 1004.68 1004.72 1004.67 1004.52 1004.28 1003.95 1003.56 1003.10 1002.62 1002.13 1001.65 1001.21 1000.84 1000.56 1000.39 1000.35 1000.44 1000.67 1001.03 1001.50 1002.05 1002.65 1003.28 1003.89 1004.46 1004.98 1005.44 1005.84 1006.19 1006.50 1006.80 1007.11 1007.42 1007.75
1004.11 1003.79 1003.58 1003.49 1003.51 1003.62 1003.79 1003.98 1004.16 1004.29 1004.36 1004.35 1004.25 1004.06 1003.79 1003.44 1003.05 1002.62 1002.17 1001.74 1001.34 1000.99 1000.73 1000.56 1000.50 1000.56 1000.74 1001.03 1001.42 1001.89 1002.40 1002.94 1003.47 1003.97 1004.43 1004.84 1005.21 1005.55 1005.86 1006.17 1006.49 1006.82 1007.16
1003.96 1003.58 1003.30 1003.15 1003.11 1003.17 1003.31 1003.49 1003.67 1003.83 1003.93 1003.97 1003.92 1003.78 1003.57 1003.29 1002.96 1002.59 1002.21 1001.84 1001.50 1001.20 1000.97 1000.83 1000.78 1000.83 1000.98 1001.22 1001.54 1001.93 1002.35 1002.79 1003.23 1003.65 1004.03 1004.38 1004.71 1005.01 1005.30 1005.59 1005.90 1006.23 1006.57
1003.52 1003.12 1002.83 1002.65 1002.58 1002.62 1002.74 1002.92 1003.11 1003.29 1003.43 1003.51 1003.51 1003.43 1003.28 1003.07 1002.80 1002.51 1002.20 1001.90 1001.63 1001.40 1001.23 1001.13 1001.12 1001.18 1001.33 1001.54 1001.81 1002.13 1002.47 1002.82 1003.16 1003.48 1003.78 1004.06 1004.31 1004.56 1004.81 1005.07 1005.35 1005.65 1005.96
1002.83 1002.47 1002.20 1002.03 1001.97 1002.01 1002.14 1002.32 1002.52 1002.72 1002.88 1002.99 1003.04 1003.01 1002.91 1002.75 1002.55 1002.32 1002.09 1001.87 1001.67 1001.52 1001.43 1001.40 1001.44 1001.54 1001.69 1001.90 1002.14 1002.41 1002.68 1002.94 1003.20 1003.43 1003.64 1003.83 1004.01 1004.19 1004.39 1004.60 1004.83 1005.09 1005.37
1002.00 1001.72 1001.52 1001.40 1001.38 1001.45 1001.58 1001.76 1001.97 1002.17 1002.35 1002.47 1002.53 1002.53 1002.46 1002.35 1002.19 1002.02 1001.85 1001.70 1001.58 1001.52 1001.50 1001.55 1001.65 1001.80 1001.98 1002.20 1002.43 1002.66 1002.87 1003.07 1003.25 1003.40 1003.53 1003.64 1003.76 1003.88 1004.02 1004.18 1004.37 1004.59 1004.83
1001.20 1001.04 1000.94 1000.90 1000.93 1001.02 1001.16 1001.34 1001.54 1001.72 1001.88 1001.99 1002.04 1002.03 1001.97 1001.87 1001.74 1001.61 1001.49 1001.40 1001.35 1001.36 1001.42 1001.54 1001.70 1001.90 1002.12 1002.35 1002.58 1002.79 1002.97 1003.13 1003.24 1003.34 1003.41 1003.47 1003.53 1003.60 1003.70 1003.82 1003.98 1004.18 1004.41
1000.61 1000.59 1000.60 1000.64 1000.71 1000.83 1000.97 1001.12 1001.28 1001.42 1001.53 1001.60 1001.61 1001.58 1001.50 1001.39 1001.27 1001.16 1001.07 1001.02 1001.02 1001.08 1001.20 1001.38 1001.59 1001.83 1002.09 1002.34 1002.57 1002.77 1002.94 1003.06 1003.15 1003.21 1003.25 1003.28 1003.32 1003.37 1003.45 1003.57 1003.73 1003.93 1004.16
Thickness
5787 5786 5784 5781 5777 5774 5770 5767 5764 5761 5759 5756 5754 5752 5751 5750 5749 5747 5745 5744 5743 5741 5740 5742 5739 5739 5739 5737 5736 5734 5732 5732 5733 5731 5730 5732 5734 5734 5733 5733 5733 5732 5731
5782 5780 5779 5777 5774 5771 5767 5765 5762 5760 5758 5756 5753 5752 5751 5749 5747 5745 5742 5741 5739 5738 5739 5738 5738 5737 5736 5734 5733 5731 5731 5730 5730 5729 5726 5725 5727 5730 5732 5732 5731 5731 5730
5779 5776 5774 5773 5771 5768 5765 5763 5759 5757 5756 5754 5752 5749 5746 5745 5742 5740 5738 5737 5737 5736 5735 5735 5735 5734 5734 5732 5730 5729 5727 5727 5728 5729 5726 5723 5722 5725 5728 5728 5729 5727 5727
5778 5774 5772 5769 5768 5766 5764 5761 5757 5754 5753 5751 5750 5746 5743 5740 5739 5737 5736 5735 5734 5733 5732 5731 5731 5731 5732 5729 5729 5728 5727 5725 5725 5725 5725 5725 5725 5721 5720 5724 5725 5724 5723
5776 5772 5770 5768 5766 5765 5762 5759 5754 5751 5749 5748 5746 5743 5741 5739 5738 5735 5733 5732 5731 5730 5730 5729 5728 5727 5727 5726 5725 5725 5724 5725 5724 5723 5722 5721 5720 5721 5717 5715 5718 5720 5721
5773 5770 5769 5767 5763 5762 5759 5756 5751 5747 5746 5744 5742 5740 5737 5736 5733 5731 5730 5729 5729 5728 5727 5726 5725 5724 5724 5723 5722 5722 5721 5721 5720 5720 5720 5719 5718 5717 5716 5713 5713 5714 5717
5769 5767 5765 5763 5760 5758 5755 5752 5748 5743 5741 5740 5738 5736 5734 5732 5730 5729 5728 5728 5727 5726 5724 5724 5722 5722 5720 5720 5719 5718 5718 5717 5716 5715 5716 5716 5716 5717 5715 5712 5711 5711 5713
5765 5764 5762 5760 5757 5754 5751 5748 5745 5741 5738 5736 5734 5732 5731 5731 5730 5727 5728 5726 5726 5725 5722 5721 5720 5719 5718 5717 5716 5716 5715 5714 5712 5713 5712 5712 5713 5713 5712 5710 5708 5706 5708
5759 5759 5758 5756 5753 5750 5747 5745 5741 5737 5735 5734 5731 5729 5728 5727 5726 5724 5723 5724 5722 5722 5720 5717 5716 5715 5714 5713 5712 5712 5711 5710 5710 5710 5709 5709 5710 5709 5709 5708 5707 5702 5700
5753 5752 5751 5750 5748 5747 5744 5741 5737 5734 5733 5731 5728 5727 5725 5723 5722 5722 5720 5719 5718 5717 5716 5714 5712 5712 5711 5710 5709 5709 5707 5706 5705 5704 5704 5703 5706 5705 5704 5703 5703 5702 5700
5747 5746 5745 5745 5743 5741 5739 5735 5733 5730 5728 5727 5725 5723 5722 5720 5719 5718 5716 5714 5713 5712 5711 5710 5709 5708 5707 5706 5705 5705 5704 5702 5701 5700 5699 5698 5698 5699 5700 5699 5698 5697 5696
5742 5742 5740 5738 5736 5735 5733 5731 5728 5726 5725 5724 5721 5719 5718 5717 5715 5714 5712 5710 5708 5708 5707 5706 5705 5704 5703 5702 5701 5700 5699 5698 5697 5696 5695 5694 5695 5693 5694 5693 5692 5692 5691
5734 5734 5732 5731 5729 5728 5727 5726 5724 5722 5721 5719 5717 5715 5714 5713 5711 5709 5707 5706 5704 5703 5702 5701 5700 5699 5698 5697 5697 5695 5694 5693 5693 5691 5690 5689 5688 5687 5688 5687 5687 5687 5686
5726 5726 5724 5723 5723 5722 5720 5719 5718 5717 5716 5714 5713 5710 5710 5708 5706 5705 5703 5701 5700 5698 5697 5696 5696 5695 5694 5693 5691 5690 5689 5688 5688 5687 5686 5685 5683 5681 5680 5681 5680 5680 5679
5718 5717 5716 5716 5716 5715 5714 5714 5713 5711 5710 5709 5707 5706 5705 5704 5702 5700 5698 5696 5694 5694 5692 5691 5690 5690 5689 5687 5686 5684 5684 5683 5682 5681 5681 5679 5677 5674 5673 5675 5674 5674 5673
5710 5710 5709 5709 5708 5707 5707 5707 5706 5705 5704 5703 5702 5701 5700 5698 5696 5694 5692 5690 5688 5687 5686 5685 5684 5683 5683 5678 5675 5675 5677 5676 5675 5674 5674 5674 5672 5669 5666 5665 5664 5664 5665
5704 5703 5702 5701 5700 5700 5700 5699 5699 5699 5698 5697 5696 5695 5693 5692 5691 5689 5687 5684 5682 5681 5680 5679 5678 5676 5673 5668 5667 5666 5668 5669 5668 5667 5667 5669 5668 5665 5665 5661 5658 5658 5657
5696 5696 5695 5694 5694 5694 5694 5694 5693 5692 5692 5691 5690 5689 5687 5686 5684 5682 5680 5678 5676 5675 5674 5673 5671 5669 5666 5661 5660 5658 5660 5661 5661 5660 5661 5660 5659 5660 5657 5657 5657 5657 5656
5688 5687 5688 5688 5687 5687 5688 5688 5687 5686 5684 5683 5682 5681 5680 5679 5677 5675 5672 5671 5669 5668 5667 5666 5664 5662 5658 5653 5652 5650 5654 5653 5653 5654 5654 5653 5652 5649 5647 5649 5650 5650 5650
5679 5678 5679 5680 5679 5680 5681 5680 5679 5677 5676 5675 5675 5674 5673 5671 5669 5667 5665 5664 5662 5661 5660 5659 5657 5655 5652 5646 5643 5641 5648 5647 5647 5646 5646 5644 5643 5641 5639 5642 5643 5643 5644
5669 5670 5671 5671 5671 5672 5672 5671 5671 5668 5668 5668 5668 5667 5665 5664 5662 5660 5658 5657 5656 5655 5653 5651 5650 5647 5645 5639 5636 5634 5639 5641 5641 5641 5642 5641 5635 5633 5632 5633 5636 5635 5635
5661 5662 5662 5662 5663 5663 5664 5663 5661 5661 5661 5661 5659 5658 5657 5656 5655 5652 5651 5650 5648 5647 5645 5644 5642 5640 5638 5634 5630 5628 5628 5629 5632 5633 5636 5634 5628 5627 5626 5627 5627 5627 5627
5653 5654 5654 5654 5654 5655 5655 5654 5653 5654 5654 5652 5651 5649 5648 5647 5647 5645 5644 5643 5641 5641 5640 5639 5637 5636 5634 5629 5624 5622 5621 5621 5623 5627 5624 5623 5621 5620 5622 5621 5620 5621 5624
5647 5647 5647 5646 5645 5645 5646 5645 5645 5645 5646 5644 5642 5642 5641 5640 5639 5638 5638 5637 5636 5635 5634 5633 5632 5631 5629 5627 5624 5621 5618 5615 5616 5618 5618 5615 5615 5616 5616 5617 5618 5619 5620
5640 5639 5638 5637 5637 5637 5638 5638 5637 5637 5637 5636 5635 5635 5635 5634 5632 5631 5629 5629 5628 5627 5624 5626 5625 5624 5623 5617 5613 5614 5615 5614 5613 5612 5615 5616 5617 5617 5617 5617 5616 5616 5615
5632 5631 5630 5631 5630 5630 5630 5630 5630 5630 5629 5629 5628 5629 5628 5626 5626 5624 5622 5617 5617 5614 5612 5612 5612 5613 5609 5606 5605 5603 5602 5602 5602 5605 5610 5611 5612 5613 5613 5613 5611 5610 5609